KJ4AJP Weather Reports


Display with metric or nautical units.
time (UTC)temp
F
wind
direction
speed
MPH
gust
MPH
rain 1hr
in
rain 24hr
in
rain mn
in
humidity
%
barometer
mb
20260505020932 67 57 0.0 0.0 0.00 0.00 0.00 55 1009.0
20260505020428 68 55 0.0 0.0 0.00 0.00 0.00 54 1008.8
20260505015925 68 54 0.0 0.0 0.00 0.00 0.00 53 1008.8
20260505015422 68 57 0.0 0.0 0.00 0.00 0.00 52 1008.6
20260505014920 69 50 0.0 0.0 0.00 0.00 0.00 51 1008.6
20260505014416 69 50 0.0 0.0 0.00 0.00 0.00 50 1008.6
20260505013913 69 70 0.0 0.0 0.00 0.00 0.00 49 1008.5
20260505013410 69 54 0.0 0.0 0.00 0.00 0.00 49 1008.4
20260505012908 69 49 0.0 0.0 0.00 0.00 0.00 50 1008.5
20260505012406 69 86 0.0 1.0 0.00 0.00 0.00 49 1008.5
20260505011902 69 41 0.0 0.0 0.00 0.00 0.00 49 1008.4
20260505011359 70 173 0.0 2.0 0.00 0.00 0.00 48 1008.3
20260505010855 70 53 0.0 0.0 0.00 0.00 0.00 47 1008.5
20260505010351 71 60 0.0 0.0 0.00 0.00 0.00 46 1008.4
20260505005847 72 46 0.0 0.0 0.00 0.00 0.00 45 1008.2
20260505005344 73 40 0.0 0.0 0.00 0.00 0.00 43 1008.3
20260505004842 73 67 0.0 0.0 0.00 0.00 0.00 42 1008.3
20260505004338 74 322 2.0 2.0 0.00 0.00 0.00 41 1008.5
20260505003835 75 4 0.0 1.0 0.00 0.00 0.00 40 1008.4
20260505003332 75 352 3.0 3.0 0.00 0.00 0.00 39 1008.4
20260505002828 75 142 1.0 2.0 0.00 0.00 0.00 39 1008.4
20260505002325 76 279 4.0 6.0 0.00 0.00 0.00 38 1008.5
20260505001824 76 334 3.0 4.0 0.00 0.00 0.00 37 1008.3
20260505001320 76 298 3.0 3.0 0.00 0.00 0.00 37 1008.4
20260505000818 76 317 4.0 6.0 0.00 0.00 0.00 36 1008.3
20260505000315 77 206 3.0 8.0 0.00 0.00 0.00 36 1008.5
20260504235812 77 337 4.0 4.0 0.00 0.00 0.00 36 1008.3
20260504235309 77 329 3.0 3.0 0.00 0.00 0.00 36 1008.3
20260504234805 77 311 2.0 3.0 0.00 0.00 0.00 36 1008.6
20260504234303 77 280 6.0 7.0 0.00 0.00 0.00 35 1008.5
20260504233759 78 314 5.0 8.0 0.00 0.00 0.00 35 1008.4
20260504233255 78 246 8.0 10.0 0.00 0.00 0.00 35 1008.7
20260504232752 78 284 12.0 15.0 0.00 0.00 0.00 33 1008.6
20260504232249 78 250 6.0 7.0 0.00 0.00 0.00 34 1008.7
20260504231746 78 305 3.0 3.0 0.00 0.00 0.00 35 1008.7
20260504231242 78 228 5.0 8.0 0.00 0.00 0.00 35 1008.7
20260504230738 79 308 9.0 15.0 0.00 0.00 0.00 34 1008.9
20260504230237 79 39 4.0 4.0 0.00 0.00 0.00 36 1008.9
20260504225735 79 208 3.0 4.0 0.00 0.00 0.00 35 1009.0
20260504225231 79 118 2.0 2.0 0.00 0.00 0.00 36 1008.8
20260504224729 79 143 5.0 7.0 0.00 0.00 0.00 34 1009.0
20260504224226 80 189 3.0 4.0 0.00 0.00 0.00 35 1009.0
20260504223722 80 124 2.0 2.0 0.00 0.00 0.00 35 1009.0
20260504223217 80 311 3.0 4.0 0.00 0.00 0.00 35 1009.0
20260504222715 80 93 5.0 8.0 0.00 0.00 0.00 34 1009.0
20260504222212 81 282 6.0 9.0 0.00 0.00 0.00 34 1008.9
20260504221709 81 339 4.0 4.0 0.00 0.00 0.00 35 1008.8
20260504221206 81 101 6.0 10.0 0.00 0.00 0.00 35 1008.8
20260504220702 82 241 4.0 4.0 0.00 0.00 0.00 35 1008.7
20260504220200 82 61 2.0 4.0 0.00 0.00 0.00 36 1008.9
20260504215656 81 30 1.0 2.0 0.00 0.00 0.00 35 1008.9
20260504215154 81 308 3.0 3.0 0.00 0.00 0.00 34 1008.7
20260504214649 82 184 4.0 6.0 0.00 0.00 0.00 34 1008.7
20260504214146 81 42 3.0 3.0 0.00 0.00 0.00 34 1008.9
20260504213643 81 199 3.0 3.0 0.00 0.00 0.00 34 1008.7
20260504213139 82 358 6.0 7.0 0.00 0.00 0.00 33 1009.0
20260504212635 82 334 9.0 13.0 0.00 0.00 0.00 32 1009.0
20260504212132 81 267 3.0 4.0 0.00 0.00 0.00 35 1008.7
20260504211630 81 202 1.0 3.0 0.00 0.00 0.00 36 1008.7
20260504211126 81 321 2.0 4.0 0.00 0.00 0.00 35 1008.6
20260504210624 82 352 7.0 10.0 0.00 0.00 0.00 33 1008.7
20260504210120 81 294 3.0 4.0 0.00 0.00 0.00 36 1008.8
20260504205618 81 306 7.0 10.0 0.00 0.00 0.00 34 1008.9
20260504205115 82 268 8.0 10.0 0.00 0.00 0.00 35 1009.0
20260504204614 81 310 4.0 7.0 0.00 0.00 0.00 35 1008.9
20260504204112 81 334 6.0 7.0 0.00 0.00 0.00 35 1009.0
20260504203610 82 235 6.0 8.0 0.00 0.00 0.00 34 1009.1
20260504203108 82 116 2.0 2.0 0.00 0.00 0.00 34 1009.3
20260504202602 82 38 2.0 4.0 0.00 0.00 0.00 37 1009.1
20260504201516 82 309 6.0 8.0 0.00 0.00 0.00 35 1009.5
20260504201014 82 309 6.0 8.0 0.00 0.00 0.00 35 1009.5
20260504200510 82 59 3.0 4.0 0.00 0.00 0.00 38 1009.4
20260504200007 82 53 2.0 4.0 0.00 0.00 0.00 36 1009.6
20260504195503 81 104 3.0 6.0 0.00 0.00 0.00 36 1009.5
20260504194959 82 290 4.0 4.0 0.00 0.00 0.00 36 1009.6
20260504194455 82 358 2.0 3.0 0.00 0.00 0.00 38 1009.7
20260504193951 82 251 5.0 7.0 0.00 0.00 0.00 36 1009.9
20260504193449 81 303 8.0 10.0 0.00 0.00 0.00 35 1009.9
20260504192947 81 316 4.0 4.0 0.00 0.00 0.00 36 1009.8
20260504192444 81 156 6.0 9.0 0.00 0.00 0.00 35 1009.9
20260504191943 81 259 3.0 7.0 0.00 0.00 0.00 38 1010.0
20260504191441 82 237 7.0 9.0 0.00 0.00 0.00 35 1010.1
20260504190935 81 333 2.0 2.0 0.00 0.00 0.00 38 1010.1
20260504190431 81 260 6.0 8.0 0.00 0.00 0.00 36 1010.0
20260504185928 81 302 6.0 8.0 0.00 0.00 0.00 35 1010.4
20260504185426 81 40 3.0 4.0 0.00 0.00 0.00 36 1010.3
20260504184921 81 284 4.0 4.0 0.00 0.00 0.00 37 1010.3
20260504184417 80 296 6.0 8.0 0.00 0.00 0.00 37 1010.4
20260504183913 80 153 3.0 4.0 0.00 0.00 0.00 38 1010.4
20260504183411 80 232 5.0 9.0 0.00 0.00 0.00 37 1010.6
20260504182909 80 349 2.0 3.0 0.00 0.00 0.00 36 1010.6
20260504182405 80 184 3.0 3.0 0.00 0.00 0.00 37 1010.4
20260504181902 80 297 7.0 9.0 0.00 0.00 0.00 37 1010.9
20260504181359 80 305 4.0 8.0 0.00 0.00 0.00 39 1010.5
20260504180858 81 24 4.0 6.0 0.00 0.00 0.00 38 1010.8
20260504180356 80 43 2.0 3.0 0.00 0.00 0.00 38 1010.8
20260504175854 80 323 7.0 10.0 0.00 0.00 0.00 37 1010.9
20260504175351 79 82 3.0 6.0 0.00 0.00 0.00 39 1010.8
20260504174849 79 329 6.0 9.0 0.00 0.00 0.00 39 1011.1
20260504174346 79 293 6.0 8.0 0.00 0.00 0.00 37 1011.0
20260504173843 79 20 4.0 7.0 0.00 0.00 0.00 39 1011.0
20260504173340 80 311 7.0 10.0 0.00 0.00 0.00 38 1011.1
20260504172837 80 37 4.0 7.0 0.00 0.00 0.00 39 1011.2
20260504172333 79 234 9.0 10.0 0.00 0.00 0.00 37 1011.3
20260504171829 79 339 6.0 11.0 0.00 0.00 0.00 38 1011.1
20260504171327 79 185 4.0 7.0 0.00 0.00 0.00 38 1011.1
20260504170824 79 223 8.0 11.0 0.00 0.00 0.00 38 1011.5
20260504170321 79 260 6.0 8.0 0.00 0.00 0.00 38 1011.6
20260504160239 77 265 5.0 7.0 0.00 0.00 0.00 43 1012.0
20260504150704 73 167 4.0 4.0 0.00 0.00 0.00 52 1012.7
20260504150201 73 200 4.0 6.0 0.00 0.00 0.00 51 1012.8
20260504141130 69 20 1.0 1.0 0.00 0.00 0.00 60 1012.5
20260504140627 68 282 4.0 4.0 0.00 0.00 0.00 59 1012.7
20260504140122 68 44 1.0 2.0 0.00 0.00 0.00 61 1012.7
20260504130551 64 55 0.0 0.0 0.00 0.00 0.00 65 1012.7
20260504110438 59 40 2.0 2.0 0.00 0.00 0.00 69 1012.0
20260504100401 59 57 1.0 1.0 0.00 0.00 0.00 67 1011.9
20260504081754 60 51 0.0 0.0 0.00 0.00 0.00 62 1012.3
20260504081251 60 105 2.0 2.0 0.00 0.00 0.00 62 1012.3
20260504080747 60 59 0.0 1.0 0.00 0.00 0.00 61 1012.3
20260504080243 60 208 2.0 3.0 0.00 0.00 0.00 61 1012.3
20260504070211 59 47 0.0 0.0 0.00 0.00 0.00 62 1012.9
20260504060132 58 65 1.0 1.0 0.00 0.00 0.00 61 1013.7
20260504050600 59 48 0.0 0.0 0.00 0.00 0.00 57 1013.8
20260504045554 59 67 0.0 1.0 0.00 0.00 0.00 57 1013.7
20260504045049 59 55 0.0 0.0 0.00 0.00 0.00 56 1013.9
20260504044547 59 50 0.0 0.0 0.00 0.00 0.00 56 1013.8
20260504044043 59 58 1.0 1.0 0.00 0.00 0.00 56 1013.8
20260504043540 59 63 1.0 1.0 0.00 0.00 0.00 56 1013.9
20260504043038 59 51 0.0 0.0 0.00 0.00 0.00 56 1013.9
20260504042535 59 56 0.0 0.0 0.00 0.00 0.00 56 1014.1
20260504042032 59 14 1.0 1.0 0.00 0.00 0.00 55 1013.9
20260504041527 59 59 0.0 1.0 0.00 0.00 0.00 56 1014.0
20260504041023 59 52 1.0 1.0 0.00 0.00 0.00 56 1014.0
20260504040521 59 49 1.0 1.0 0.00 0.00 0.00 56 1014.3
20260504040018 59 57 0.0 0.0 0.00 0.00 0.00 56 1014.1
20260504035515 59 51 1.0 1.0 0.00 0.00 0.00 55 1014.4
20260504035011 59 75 0.0 1.0 0.00 0.00 0.00 56 1014.2
20260504034509 58 69 0.0 0.0 0.00 0.00 0.00 55 1014.2
20260504034006 58 56 0.0 0.0 0.00 0.00 0.00 55 1014.2
20260504033504 58 62 0.0 0.0 0.00 0.00 0.00 56 1014.2
20260504033001 58 54 0.0 0.0 0.00 0.00 0.00 56 1014.2
20260504032457 58 61 0.0 0.0 0.00 0.00 0.00 55 1014.4
20260504031954 58 56 0.0 0.0 0.00 0.00 0.00 56 1014.4
20260504031451 58 64 0.0 0.0 0.00 0.00 0.00 57 1014.3
20260504030947 58 37 1.0 1.0 0.00 0.00 0.00 57 1014.2
20260504030445 58 67 0.0 0.0 0.00 0.00 0.00 57 1014.6
20260504025940 57 63 0.0 0.0 0.00 0.00 0.00 58 1014.3
20260504025437 57 68 0.0 0.0 0.00 0.00 0.00 57 1014.3
20260504024935 58 69 0.0 0.0 0.00 0.00 0.00 56 1014.3
20260504024432 58 66 0.0 0.0 0.00 0.00 0.00 57 1014.3
20260504023929 58 67 0.0 0.0 0.00 0.00 0.00 56 1014.4
20260504023425 58 67 0.0 0.0 0.00 0.00 0.00 56 1014.4
20260504022921 58 67 0.0 0.0 0.00 0.00 0.00 56 1014.5
20260504022417 58 67 0.0 0.0 0.00 0.00 0.00 56 1014.5
20260504021914 58 67 0.0 0.0 0.00 0.00 0.00 55 1014.3
20260504021411 59 67 0.0 0.0 0.00 0.00 0.00 54 1014.4